Regional Weather Roundup
Issued by NWS

Home | Current Version | Previous Version | Graphics & Text | Print | Product List | Glossary On
Versions: 1 2 3 4 5 6 7 8 9 10 11 12 13 14 15 16 17 18 19 20 21 22 23 24 25 26 27
000
ASUS45 KSLC 261110
RWRUT

UTAH REGIONAL WEATHER ROUNDUP
NATIONAL WEATHER SERVICE SALT LAKE CITY UT
500 AM MDT THU MAY 26 2016

UTZ001>011-023>025-261200-

NORTHERN UTAH

CITY           SKY/WX    TMP DP  RH WIND       PRES   REMARKS
BRIGHAM CITY     N/A     44  40  83 NW5       30.01S
HILL AFB       CLEAR     45  39  80 E6        30.00F
LOGAN          CLEAR     39  37  92 CALM      30.04S
OGDEN          CLEAR     46  41  82 VRB3      29.99F
PROVO AIRPORT  CLEAR     46  37  71 CALM      30.00S
SALT LAKE CITY PTCLDY    50  43  77 W5        29.99F
VERNAL         CLOUDY    44  34  67 W6        29.99F
WENDOVER       CLOUDY    55  36  47 NW10      30.01F
HEBER CITY     CLEAR     34  32  93 CALM      30.02S
WEST JORDAN    CLEAR     46  43  87 NW5       30.01S

$$

UTZ012>022-026-027-261200-

SOUTHERN/CENTRAL UTAH

CITY           SKY/WX    TMP DP  RH WIND       PRES   REMARKS
BLANDING       CLEAR     43  19  38 N10       30.01S
BRYCE CANYON   PTCLDY    36  25  64 NW8       30.04F WCI  30
CEDAR CITY     MOCLDY    41  29  62 S3        30.00F
DELTA          PTCLDY    45  39  81 N6        30.00S
MILFORD        CLEAR     39  32  76 CALM      30.00S
MOAB/CYNLANDS  MOCLDY    56  25  30 CALM      29.86F
PRICE          CLEAR     49  26  41 CALM      29.96F
ST GEORGE      SUNNY     63  27  25 NW5       29.91S

$$

REGIONAL REPORTS     COLORADO/ARIZONA

CITY           SKY/WX    TMP DP  RH WIND       PRES   REMARKS
CRAIG, CO      CLOUDY    36  32  85 CALM      30.05F
GRAND JUNCTION CLOUDY    49  25  39 NE10      29.91F
RIFLE          CLOUDY    40  31  70 SE3       29.98S
MONTROSE       PTCLDY    51  22  31 E8        29.97S
CORTEZ         CLOUDY    42  24  49 NE6       29.98S
PAGE, AZ       PTCLDY    62  24  23 NW5       29.88F
GRAND CANYON   MOCLDY    37  26  64 CALM      30.03S
KINGMAN        CLEAR     49  32  52 MISG      29.94S
FLAGSTAFF      PTCLDY    37  23  56 CALM      30.03S

$$

REGIONAL REPORTS    NEVADA/IDAHO/WYOMING

CITY           SKY/WX    TMP DP  RH WIND       PRES   REMARKS
LAS VEGAS, NV  CLEAR     63  33  32 SW5       29.86R
ELY            CLOUDY    37  36  96 S3        30.09S
ELKO           FOG       36  34  92 CALM      30.08F VSB 1/4
POCATELLO, ID  CLEAR     38  37  97 CALM      30.04F
BURLEY         CLEAR     42  37  82 CALM      30.02S
EVANSTON, WY   CLEAR     37  33  85 VRB3      30.08S
ROCK SPRINGS   CLEAR     34  32  92 S7        30.06S WCI  28
KEMMERER         N/A     32  32 100 NW7       30.08F WCI  26

$$




USA.gov is the U.S. government's official web portal to all federal, state and local government web resources and services.